QPF
0.11 0.07 0.05 0.06 0.12 0.14 0.10 0.07 0.07 0.10 0.13 0.16 0.15 0.13 0.11 0.09 0.11 0.15 0.15 0.17 0.24 0.29 0.29 0.23 0.16 0.15 0.14 0.12 0.12 0.12 0.09 0.12 0.15 0.09 0.08 0.05 0.04 0.04 0.05 0.05 0.07 0.05 0.05
0.08 0.07 0.06 0.11 0.19 0.16 0.09 0.06 0.07 0.07 0.08 0.12 0.15 0.14 0.12 0.09 0.09 0.13 0.18 0.25 0.33 0.33 0.27 0.20 0.15 0.13 0.12 0.11 0.13 0.12 0.12 0.13 0.12 0.08 0.07 0.05 0.04 0.04 0.04 0.06 0.09 0.06 0.05
0.09 0.08 0.09 0.15 0.18 0.14 0.10 0.08 0.07 0.07 0.07 0.09 0.12 0.12 0.13 0.13 0.11 0.11 0.12 0.15 0.20 0.19 0.18 0.18 0.14 0.13 0.12 0.12 0.12 0.11 0.10 0.11 0.09 0.07 0.07 0.07 0.05 0.04 0.05 0.06 0.06 0.05 0.05
0.11 0.11 0.10 0.12 0.12 0.12 0.09 0.09 0.08 0.07 0.10 0.12 0.14 0.12 0.13 0.14 0.12 0.12 0.10 0.09 0.11 0.14 0.15 0.18 0.18 0.16 0.12 0.11 0.11 0.08 0.07 0.08 0.08 0.10 0.10 0.06 0.05 0.04 0.04 0.06 0.06 0.07 0.07
0.09 0.11 0.13 0.21 0.20 0.13 0.10 0.09 0.08 0.09 0.11 0.15 0.17 0.15 0.12 0.14 0.11 0.10 0.10 0.10 0.10 0.13 0.17 0.17 0.19 0.16 0.10 0.10 0.08 0.06 0.06 0.07 0.09 0.10 0.10 0.09 0.10 0.09 0.08 0.10 0.14 0.17 0.13
0.08 0.11 0.16 0.17 0.20 0.18 0.13 0.11 0.08 0.09 0.11 0.12 0.11 0.11 0.11 0.12 0.10 0.09 0.10 0.11 0.13 0.12 0.15 0.18 0.20 0.13 0.12 0.11 0.08 0.06 0.06 0.07 0.08 0.08 0.14 0.12 0.10 0.08 0.08 0.11 0.15 0.22 0.24
0.06 0.09 0.11 0.11 0.14 0.17 0.11 0.09 0.08 0.08 0.08 0.06 0.06 0.07 0.09 0.13 0.12 0.10 0.10 0.13 0.18 0.19 0.23 0.24 0.21 0.16 0.15 0.12 0.09 0.07 0.06 0.06 0.07 0.07 0.12 0.09 0.06 0.05 0.07 0.10 0.16 0.17 0.15
0.05 0.08 0.11 0.15 0.20 0.16 0.10 0.08 0.06 0.07 0.08 0.06 0.06 0.07 0.07 0.10 0.12 0.13 0.12 0.14 0.21 0.25 0.29 0.22 0.17 0.14 0.12 0.11 0.09 0.07 0.05 0.05 0.05 0.05 0.06 0.06 0.06 0.05 0.05 0.06 0.08 0.10 0.13
0.04 0.06 0.08 0.13 0.21 0.18 0.12 0.08 0.06 0.07 0.07 0.06 0.06 0.06 0.07 0.09 0.09 0.08 0.10 0.14 0.19 0.24 0.24 0.17 0.14 0.13 0.12 0.09 0.07 0.06 0.05 0.05 0.06 0.06 0.06 0.05 0.05 0.05 0.05 0.04 0.04 0.04 0.05
0.04 0.04 0.05 0.10 0.15 0.16 0.13 0.07 0.05 0.05 0.07 0.08 0.07 0.06 0.07 0.10 0.08 0.08 0.11 0.14 0.11 0.14 0.14 0.13 0.11 0.11 0.12 0.10 0.07 0.04 0.03 0.03 0.06 0.06 0.07 0.04 0.04 0.04 0.05 0.03 0.04 0.04 0.03
0.04 0.04 0.06 0.09 0.11 0.12 0.11 0.07 0.06 0.07 0.08 0.10 0.09 0.09 0.12 0.17 0.14 0.14 0.13 0.09 0.07 0.08 0.09 0.10 0.09 0.11 0.12 0.10 0.06 0.03 0.03 0.05 0.07 0.07 0.05 0.04 0.03 0.03 0.04 0.03 0.03 0.05 0.04
0.04 0.03 0.05 0.08 0.10 0.09 0.06 0.09 0.11 0.10 0.09 0.10 0.13 0.16 0.18 0.17 0.15 0.12 0.10 0.11 0.11 0.10 0.09 0.11 0.11 0.12 0.11 0.08 0.05 0.04 0.04 0.07 0.06 0.04 0.03 0.02 0.02 0.03 0.04 0.03 0.03 0.05 0.05
0.02 0.03 0.04 0.06 0.08 0.07 0.06 0.06 0.08 0.09 0.12 0.11 0.11 0.12 0.10 0.09 0.10 0.12 0.16 0.19 0.14 0.11 0.12 0.12 0.13 0.13 0.11 0.09 0.06 0.04 0.05 0.07 0.07 0.03 0.04 0.03 0.02 0.03 0.04 0.04 0.04 0.05 0.08
0.02 0.03 0.04 0.04 0.06 0.07 0.06 0.05 0.06 0.06 0.07 0.06 0.07 0.05 0.05 0.08 0.13 0.21 0.32 0.27 0.18 0.16 0.14 0.12 0.13 0.11 0.11 0.10 0.06 0.07 0.08 0.10 0.08 0.05 0.05 0.02 0.02 0.03 0.05 0.06 0.06 0.07 0.10
0.01 0.01 0.02 0.02 0.02 0.04 0.05 0.05 0.04 0.05 0.05 0.04 0.04 0.04 0.05 0.08 0.15 0.29 0.35 0.25 0.16 0.14 0.12 0.11 0.10 0.09 0.09 0.09 0.09 0.09 0.10 0.09 0.09 0.08 0.05 0.03 0.02 0.03 0.05 0.08 0.11 0.09 0.07
0.01 0.01 0.01 0.01 0.01 0.02 0.03 0.04 0.05 0.04 0.04 0.04 0.04 0.07 0.04 0.06 0.13 0.21 0.22 0.16 0.14 0.12 0.12 0.09 0.08 0.08 0.10 0.14 0.15 0.12 0.11 0.08 0.12 0.10 0.06 0.05 0.03 0.02 0.03 0.09 0.12 0.04 0.03
0.01 0.02 0.02 0.01 0.01 0.01 0.02 0.03 0.03 0.04 0.04 0.04 0.03 0.03 0.04 0.05 0.07 0.10 0.11 0.13 0.14 0.13 0.11 0.09 0.08 0.08 0.09 0.09 0.08 0.07 0.06 0.07 0.07 0.06 0.06 0.05 0.03 0.03 0.04 0.05 0.03 0.02 0.02
0.01 0.01 0.01 0.00 0.01 0.01 0.01 0.02 0.02 0.03 0.04 0.05 0.03 0.04 0.03 0.04 0.07 0.11 0.12 0.12 0.11 0.09 0.09 0.09 0.08 0.08 0.08 0.06 0.07 0.05 0.05 0.07 0.08 0.07 0.05 0.04 0.04 0.04 0.04 0.02 0.02 0.03 0.03
0.01 0.01 0.01 0.01 0.01 0.01 0.02 0.02 0.03 0.03 0.04 0.04 0.04 0.05 0.04 0.03 0.04 0.07 0.09 0.09 0.09 0.10 0.10 0.08 0.08 0.09 0.08 0.07 0.05 0.06 0.06 0.08 0.09 0.07 0.05 0.03 0.03 0.04 0.05 0.05 0.03 0.03 0.04
0.01 0.01 0.02 0.01 0.02 0.02 0.02 0.03 0.03 0.03 0.04 0.04 0.03 0.04 0.03 0.03 0.02 0.03 0.07 0.07 0.07 0.08 0.09 0.11 0.11 0.11 0.09 0.09 0.06 0.08 0.07 0.06 0.06 0.05 0.05 0.04 0.04 0.03 0.05 0.05 0.05 0.03 0.02
0.01 0.02 0.02 0.03 0.02 0.02 0.04 0.05 0.05 0.04 0.04 0.03 0.02 0.02 0.03 0.03 0.02 0.04 0.05 0.06 0.08 0.09 0.09 0.11 0.13 0.14 0.11 0.11 0.11 0.12 0.10 0.08 0.07 0.06 0.05 0.04 0.02 0.02 0.03 0.05 0.05 0.06 0.06
0.01 0.01 0.01 0.02 0.02 0.02 0.03 0.04 0.04 0.02 0.02 0.02 0.02 0.03 0.03 0.03 0.03 0.04 0.06 0.07 0.09 0.10 0.09 0.10 0.11 0.11 0.10 0.11 0.12 0.17 0.18 0.16 0.10 0.07 0.05 0.04 0.03 0.03 0.03 0.04 0.06 0.07 0.08
0.01 0.01 0.01 0.02 0.02 0.02 0.02 0.02 0.03 0.04 0.04 0.05 0.03 0.04 0.03 0.02 0.02 0.03 0.06 0.06 0.07 0.07 0.08 0.09 0.10 0.10 0.10 0.10 0.10 0.14 0.17 0.19 0.16 0.11 0.07 0.05 0.05 0.07 0.05 0.04 0.05 0.05 0.06
0.01 0.01 0.01 0.02 0.02 0.02 0.03 0.04 0.04 0.05 0.05 0.04 0.03 0.03 0.03 0.02 0.01 0.02 0.03 0.04 0.05 0.05 0.06 0.06 0.09 0.11 0.12 0.10 0.11 0.12 0.11 0.13 0.14 0.14 0.09 0.04 0.04 0.04 0.03 0.03 0.03 0.05 0.05
0.00 0.00 0.00 0.02 0.03 0.02 0.02 0.03 0.05 0.06 0.05 0.04 0.04 0.04 0.02 0.02 0.01 0.01 0.03 0.05 0.05 0.05 0.06 0.06 0.07 0.09 0.10 0.09 0.10 0.09 0.07 0.09 0.10 0.13 0.13 0.08 0.05 0.02 0.01 0.02 0.03 0.03 0.03
0.00 0.00 0.00 0.01 0.01 0.01 0.01 0.01 0.03 0.04 0.05 0.06 0.06 0.05 0.04 0.03 0.02 0.02 0.04 0.04 0.05 0.06 0.06 0.06 0.07 0.07 0.08 0.09 0.09 0.08 0.08 0.08 0.10 0.11 0.11 0.11 0.09 0.04 0.03 0.02 0.02 0.03 0.03
MSLP
1008.50 1008.25 1008.14 1008.21 1008.44 1008.78 1009.12 1009.42 1009.61 1009.69 1009.71 1009.72 1009.82 1010.04 1010.41 1010.92 1011.51 1012.10 1012.65 1013.10 1013.45 1013.71 1013.92 1014.13 1014.36 1014.61 1014.88 1015.13 1015.33 1015.47 1015.56 1015.61 1015.67 1015.78 1015.95 1016.19 1016.47 1016.76 1017.03 1017.23 1017.37 1017.45 1017.51
1008.73 1008.56 1008.53 1008.67 1008.96 1009.32 1009.68 1009.97 1010.15 1010.22 1010.25 1010.28 1010.41 1010.68 1011.09 1011.62 1012.22 1012.80 1013.31 1013.71 1014.00 1014.21 1014.38 1014.55 1014.75 1014.98 1015.23 1015.45 1015.62 1015.74 1015.80 1015.83 1015.89 1016.00 1016.19 1016.46 1016.77 1017.09 1017.38 1017.60 1017.75 1017.83 1017.88
1008.94 1008.82 1008.86 1009.06 1009.39 1009.78 1010.16 1010.45 1010.64 1010.73 1010.78 1010.86 1011.02 1011.32 1011.75 1012.28 1012.84 1013.38 1013.82 1014.16 1014.40 1014.57 1014.72 1014.88 1015.07 1015.30 1015.53 1015.74 1015.90 1015.99 1016.03 1016.06 1016.12 1016.25 1016.45 1016.74 1017.08 1017.43 1017.74 1017.97 1018.13 1018.21 1018.25
1009.07 1009.01 1009.11 1009.36 1009.73 1010.15 1010.54 1010.86 1011.07 1011.20 1011.30 1011.42 1011.63 1011.95 1012.37 1012.87 1013.37 1013.84 1014.21 1014.49 1014.68 1014.82 1014.97 1015.14 1015.35 1015.59 1015.82 1016.02 1016.16 1016.24 1016.27 1016.29 1016.35 1016.49 1016.72 1017.03 1017.40 1017.76 1018.08 1018.33 1018.49 1018.57 1018.62
1009.11 1009.12 1009.28 1009.58 1009.98 1010.43 1010.85 1011.19 1011.45 1011.63 1011.79 1011.96 1012.21 1012.53 1012.94 1013.38 1013.82 1014.21 1014.51 1014.73 1014.89 1015.03 1015.19 1015.38 1015.62 1015.88 1016.12 1016.30 1016.42 1016.47 1016.48 1016.50 1016.56 1016.71 1016.97 1017.30 1017.68 1018.06 1018.39 1018.65 1018.82 1018.91 1018.97
1009.09 1009.17 1009.38 1009.73 1010.17 1010.65 1011.10 1011.48 1011.78 1012.02 1012.23 1012.46 1012.74 1013.07 1013.45 1013.85 1014.21 1014.53 1014.77 1014.95 1015.09 1015.25 1015.43 1015.66 1015.92 1016.19 1016.42 1016.58 1016.67 1016.68 1016.66 1016.66 1016.73 1016.89 1017.16 1017.52 1017.92 1018.32 1018.66 1018.92 1019.10 1019.21 1019.28
1009.04 1009.20 1009.48 1009.88 1010.36 1010.86 1011.33 1011.74 1012.09 1012.37 1012.64 1012.91 1013.21 1013.55 1013.91 1014.26 1014.57 1014.83 1015.03 1015.19 1015.34 1015.51 1015.73 1015.98 1016.26 1016.52 1016.72 1016.84 1016.88 1016.84 1016.78 1016.76 1016.82 1017.00 1017.30 1017.68 1018.10 1018.51 1018.87 1019.14 1019.32 1019.44 1019.53
1009.03 1009.26 1009.61 1010.07 1010.58 1011.10 1011.58 1012.01 1012.38 1012.69 1012.99 1013.30 1013.62 1013.96 1014.30 1014.62 1014.90 1015.12 1015.30 1015.46 1015.63 1015.83 1016.07 1016.35 1016.62 1016.86 1017.01 1017.07 1017.03 1016.94 1016.84 1016.79 1016.85 1017.04 1017.36 1017.77 1018.22 1018.65 1019.02 1019.30 1019.49 1019.61 1019.72
1009.10 1009.41 1009.83 1010.33 1010.87 1011.39 1011.88 1012.30 1012.67 1012.99 1013.31 1013.63 1013.96 1014.31 1014.64 1014.94 1015.20 1015.41 1015.59 1015.76 1015.95 1016.17 1016.43 1016.71 1016.96 1017.15 1017.25 1017.23 1017.12 1016.97 1016.82 1016.75 1016.81 1017.02 1017.37 1017.82 1018.30 1018.75 1019.13 1019.42 1019.61 1019.74 1019.85
1009.25 1009.64 1010.13 1010.67 1011.22 1011.74 1012.21 1012.61 1012.95 1013.27 1013.58 1013.90 1014.24 1014.58 1014.91 1015.21 1015.47 1015.68 1015.86 1016.05 1016.25 1016.49 1016.75 1017.02 1017.24 1017.38 1017.41 1017.33 1017.16 1016.95 1016.77 1016.69 1016.75 1016.98 1017.36 1017.84 1018.35 1018.83 1019.23 1019.52 1019.71 1019.83 1019.93
1009.47 1009.93 1010.48 1011.05 1011.61 1012.11 1012.54 1012.91 1013.22 1013.50 1013.80 1014.11 1014.44 1014.79 1015.12 1015.42 1015.68 1015.90 1016.10 1016.29 1016.51 1016.75 1017.00 1017.24 1017.43 1017.53 1017.50 1017.37 1017.15 1016.91 1016.72 1016.63 1016.70 1016.96 1017.36 1017.86 1018.40 1018.90 1019.31 1019.61 1019.80 1019.91 1020.00
1009.70 1010.23 1010.81 1011.41 1011.96 1012.44 1012.84 1013.16 1013.43 1013.68 1013.95 1014.25 1014.58 1014.92 1015.26 1015.57 1015.84 1016.07 1016.27 1016.47 1016.68 1016.91 1017.15 1017.37 1017.52 1017.59 1017.54 1017.38 1017.15 1016.90 1016.70 1016.63 1016.71 1016.97 1017.39 1017.90 1018.44 1018.95 1019.37 1019.67 1019.87 1019.98 1020.05
1009.88 1010.46 1011.08 1011.68 1012.23 1012.68 1013.04 1013.32 1013.55 1013.77 1014.02 1014.31 1014.64 1014.98 1015.33 1015.65 1015.93 1016.17 1016.37 1016.57 1016.77 1016.99 1017.21 1017.40 1017.54 1017.59 1017.53 1017.38 1017.17 1016.94 1016.76 1016.70 1016.78 1017.04 1017.44 1017.94 1018.47 1018.96 1019.38 1019.69 1019.89 1020.00 1020.08
1009.98 1010.58 1011.22 1011.82 1012.35 1012.77 1013.10 1013.35 1013.55 1013.76 1013.99 1014.28 1014.61 1014.97 1015.32 1015.66 1015.95 1016.20 1016.41 1016.60 1016.79 1016.99 1017.19 1017.37 1017.50 1017.56 1017.53 1017.42 1017.24 1017.05 1016.90 1016.84 1016.92 1017.14 1017.50 1017.95 1018.43 1018.90 1019.30 1019.61 1019.82 1019.96 1020.04
1009.98 1010.59 1011.22 1011.80 1012.31 1012.71 1013.01 1013.24 1013.43 1013.63 1013.86 1014.15 1014.49 1014.86 1015.24 1015.59 1015.89 1016.15 1016.37 1016.56 1016.74 1016.93 1017.12 1017.30 1017.44 1017.53 1017.55 1017.49 1017.37 1017.23 1017.10 1017.04 1017.09 1017.25 1017.53 1017.89 1018.30 1018.71 1019.08 1019.39 1019.62 1019.79 1019.91
1009.90 1010.50 1011.09 1011.65 1012.12 1012.50 1012.79 1013.01 1013.20 1013.40 1013.63 1013.93 1014.28 1014.67 1015.06 1015.42 1015.75 1016.03 1016.26 1016.45 1016.64 1016.82 1017.02 1017.21 1017.38 1017.51 1017.58 1017.58 1017.52 1017.43 1017.32 1017.25 1017.24 1017.32 1017.49 1017.73 1018.04 1018.37 1018.69 1018.99 1019.24 1019.45 1019.63
1009.80 1010.36 1010.91 1011.42 1011.86 1012.21 1012.49 1012.70 1012.90 1013.10 1013.34 1013.64 1014.00 1014.38 1014.78 1015.17 1015.51 1015.81 1016.06 1016.28 1016.48 1016.68 1016.89 1017.10 1017.30 1017.47 1017.59 1017.65 1017.65 1017.59 1017.50 1017.40 1017.33 1017.31 1017.35 1017.46 1017.64 1017.87 1018.13 1018.41 1018.68 1018.93 1019.17
1009.72 1010.22 1010.72 1011.18 1011.58 1011.91 1012.17 1012.39 1012.59 1012.79 1013.03 1013.32 1013.66 1014.03 1014.43 1014.82 1015.18 1015.50 1015.78 1016.03 1016.26 1016.49 1016.71 1016.95 1017.17 1017.38 1017.55 1017.66 1017.70 1017.67 1017.58 1017.45 1017.32 1017.19 1017.11 1017.09 1017.14 1017.26 1017.45 1017.68 1017.96 1018.25 1018.54
1009.67 1010.12 1010.55 1010.96 1011.33 1011.65 1011.91 1012.12 1012.32 1012.52 1012.74 1012.99 1013.30 1013.64 1014.01 1014.38 1014.75 1015.10 1015.41 1015.70 1015.97 1016.22 1016.48 1016.73 1016.98 1017.21 1017.40 1017.54 1017.61 1017.60 1017.52 1017.37 1017.18 1016.98 1016.79 1016.65 1016.58 1016.59 1016.69 1016.88 1017.13 1017.44 1017.77
1009.63 1010.02 1010.41 1010.78 1011.13 1011.44 1011.70 1011.93 1012.13 1012.31 1012.50 1012.71 1012.95 1013.23 1013.55 1013.89 1014.25 1014.60 1014.94 1015.27 1015.58 1015.87 1016.15 1016.42 1016.68 1016.91 1017.12 1017.27 1017.36 1017.37 1017.30 1017.15 1016.94 1016.69 1016.43 1016.19 1016.02 1015.93 1015.94 1016.06 1016.27 1016.56 1016.90
1009.51 1009.87 1010.23 1010.59 1010.94 1011.26 1011.55 1011.80 1012.00 1012.17 1012.32 1012.47 1012.63 1012.83 1013.07 1013.36 1013.69 1014.04 1014.40 1014.76 1015.10 1015.42 1015.72 1016.00 1016.26 1016.49 1016.69 1016.84 1016.94 1016.97 1016.93 1016.80 1016.60 1016.34 1016.05 1015.77 1015.52 1015.35 1015.27 1015.30 1015.44 1015.67 1015.98
1009.23 1009.58 1009.94 1010.32 1010.70 1011.06 1011.40 1011.68 1011.91 1012.07 1012.18 1012.26 1012.34 1012.45 1012.60 1012.82 1013.09 1013.42 1013.79 1014.17 1014.54 1014.89 1015.21 1015.48 1015.73 1015.94 1016.13 1016.28 1016.39 1016.44 1016.44 1016.36 1016.20 1015.98 1015.70 1015.41 1015.12 1014.88 1014.71 1014.65 1014.69 1014.84 1015.08
1008.72 1009.08 1009.47 1009.88 1010.32 1010.75 1011.16 1011.51 1011.77 1011.95 1012.04 1012.06 1012.06 1012.08 1012.14 1012.27 1012.49 1012.79 1013.15 1013.53 1013.92 1014.28 1014.61 1014.88 1015.11 1015.31 1015.47 1015.61 1015.73 1015.82 1015.87 1015.86 1015.77 1015.62 1015.39 1015.12 1014.82 1014.54 1014.29 1014.13 1014.06 1014.10 1014.24
1007.95 1008.34 1008.77 1009.24 1009.75 1010.27 1010.76 1011.19 1011.51 1011.72 1011.81 1011.81 1011.75 1011.69 1011.67 1011.73 1011.88 1012.14 1012.48 1012.86 1013.26 1013.63 1013.96 1014.23 1014.45 1014.62 1014.77 1014.90 1015.04 1015.16 1015.27 1015.33 1015.34 1015.27 1015.12 1014.90 1014.61 1014.30 1014.00 1013.74 1013.56 1013.48 1013.50
1006.99 1007.41 1007.88 1008.41 1008.99 1009.59 1010.17 1010.68 1011.08 1011.34 1011.46 1011.45 1011.36 1011.25 1011.18 1011.17 1011.28 1011.50 1011.81 1012.18 1012.58 1012.95 1013.28 1013.55 1013.76 1013.92 1014.06 1014.20 1014.35 1014.51 1014.67 1014.81 1014.91 1014.93 1014.86 1014.70 1014.45 1014.13 1013.79 1013.46 1013.17 1012.98 1012.89
1005.98 1006.40 1006.89 1007.46 1008.08 1008.74 1009.40 1009.98 1010.46 1010.78 1010.94 1010.96 1010.88 1010.75 1010.65 1010.61 1010.68 1010.87 1011.16 1011.52 1011.91 1012.28 1012.62 1012.89 1013.10 1013.26 1013.40 1013.54 1013.71 1013.90 1014.11 1014.32 1014.49 1014.59 1014.60 1014.50 1014.28 1013.98 1013.62 1013.24 1012.89 1012.60 1012.42
Thickness
5806 5807 5804 5804 5804 5804 5803 5802 5801 5801 5800 5800 5800 5799 5798 5797 5796 5795 5793 5791 5789 5787 5786 5785 5783 5782 5780 5778 5778 5776 5775 5774 5773 5772 5770 5769 5768 5766 5765 5764 5763 5761 5759
5809 5807 5803 5804 5803 5802 5802 5801 5800 5799 5799 5798 5798 5797 5796 5795 5794 5793 5792 5790 5788 5786 5784 5783 5781 5780 5778 5777 5776 5775 5774 5773 5772 5771 5769 5768 5766 5765 5764 5763 5761 5759 5758
5811 5807 5804 5802 5802 5801 5800 5799 5798 5798 5797 5797 5796 5796 5795 5794 5793 5791 5791 5789 5786 5785 5783 5781 5779 5777 5776 5775 5774 5774 5772 5772 5771 5770 5769 5767 5764 5763 5762 5761 5759 5757 5757
5811 5807 5803 5800 5800 5799 5798 5797 5797 5796 5796 5795 5794 5794 5793 5792 5791 5790 5788 5787 5785 5784 5782 5780 5777 5776 5775 5774 5773 5772 5771 5770 5770 5769 5769 5767 5765 5762 5761 5760 5758 5756 5755
5810 5805 5801 5799 5798 5797 5797 5796 5795 5795 5794 5793 5793 5792 5791 5790 5789 5788 5787 5785 5784 5782 5780 5778 5776 5775 5774 5773 5772 5771 5771 5769 5769 5768 5767 5765 5763 5761 5760 5758 5757 5755 5754
5808 5805 5800 5799 5798 5796 5796 5795 5794 5794 5793 5792 5791 5791 5790 5789 5787 5786 5785 5783 5782 5780 5779 5777 5775 5774 5772 5772 5771 5771 5770 5769 5768 5768 5766 5764 5762 5760 5759 5757 5756 5754 5753
5807 5804 5800 5799 5797 5796 5795 5794 5793 5793 5792 5791 5790 5789 5788 5787 5785 5784 5783 5781 5780 5779 5778 5776 5774 5772 5771 5771 5770 5770 5770 5769 5768 5768 5766 5764 5762 5760 5758 5756 5755 5754 5752
5808 5804 5799 5798 5796 5795 5795 5795 5794 5793 5792 5790 5789 5788 5787 5785 5784 5782 5781 5781 5779 5778 5776 5775 5773 5772 5771 5770 5770 5769 5768 5767 5769 5769 5766 5763 5761 5760 5758 5756 5755 5753 5752
5811 5806 5802 5799 5796 5795 5795 5795 5794 5793 5791 5789 5788 5787 5786 5785 5783 5782 5781 5780 5778 5777 5776 5774 5772 5771 5770 5770 5769 5769 5768 5768 5767 5768 5766 5763 5761 5759 5757 5756 5755 5753 5752
5811 5808 5805 5802 5799 5797 5795 5794 5793 5792 5790 5789 5788 5787 5785 5784 5783 5781 5780 5779 5778 5777 5775 5774 5772 5771 5770 5770 5769 5769 5768 5768 5768 5767 5765 5763 5761 5759 5757 5756 5755 5754 5754
5808 5808 5807 5805 5803 5801 5799 5796 5794 5792 5790 5789 5788 5786 5785 5784 5783 5781 5780 5779 5778 5777 5775 5774 5773 5772 5771 5770 5770 5769 5769 5768 5769 5768 5765 5762 5760 5759 5757 5756 5755 5755 5755
5805 5807 5807 5806 5804 5803 5801 5798 5796 5794 5791 5791 5789 5788 5787 5786 5784 5783 5781 5779 5778 5777 5776 5774 5773 5772 5771 5771 5771 5770 5770 5770 5770 5767 5764 5762 5760 5759 5757 5756 5755 5755 5755
5807 5807 5807 5806 5804 5802 5801 5800 5797 5796 5793 5792 5790 5789 5788 5787 5785 5783 5781 5779 5779 5778 5776 5775 5774 5773 5773 5773 5772 5772 5771 5771 5769 5767 5764 5762 5760 5759 5757 5756 5756 5754 5754
5807 5806 5807 5806 5803 5801 5801 5799 5798 5796 5794 5793 5791 5790 5789 5787 5786 5784 5782 5781 5780 5779 5778 5777 5776 5775 5774 5773 5773 5772 5772 5771 5769 5767 5764 5762 5760 5759 5758 5757 5755 5754 5753
5807 5806 5806 5804 5802 5800 5800 5799 5798 5797 5795 5794 5792 5790 5789 5788 5786 5784 5782 5782 5781 5779 5778 5776 5775 5775 5774 5772 5772 5772 5771 5771 5769 5767 5764 5762 5761 5759 5758 5757 5755 5754 5753
5808 5807 5806 5804 5802 5800 5799 5798 5798 5797 5795 5794 5791 5789 5788 5787 5785 5783 5782 5781 5780 5779 5778 5777 5776 5775 5773 5772 5772 5772 5771 5770 5769 5767 5764 5761 5760 5759 5758 5756 5755 5753 5752
5810 5809 5807 5806 5803 5801 5800 5799 5799 5798 5796 5794 5792 5790 5788 5787 5785 5784 5782 5781 5780 5779 5778 5777 5775 5774 5773 5772 5771 5771 5770 5769 5768 5767 5764 5763 5760 5759 5758 5756 5754 5753 5751
5812 5809 5808 5809 5804 5801 5800 5799 5799 5798 5796 5794 5792 5790 5788 5787 5785 5784 5782 5781 5780 5779 5778 5776 5774 5773 5772 5771 5770 5770 5770 5769 5768 5767 5766 5764 5762 5760 5757 5756 5754 5752 5750
5814 5810 5808 5807 5804 5802 5801 5800 5799 5797 5796 5794 5792 5790 5789 5787 5786 5784 5782 5781 5780 5779 5778 5777 5774 5773 5771 5770 5769 5770 5769 5768 5767 5767 5766 5765 5763 5760 5758 5755 5753 5751 5749
5816 5812 5809 5807 5805 5803 5801 5799 5798 5797 5796 5794 5792 5790 5789 5787 5786 5785 5783 5781 5780 5778 5776 5775 5773 5772 5771 5769 5769 5768 5768 5768 5767 5766 5766 5765 5763 5761 5759 5756 5753 5750 5748
5816 5812 5809 5806 5804 5802 5799 5796 5794 5793 5794 5794 5793 5791 5789 5787 5786 5785 5783 5781 5780 5776 5775 5774 5772 5770 5769 5769 5764 5761 5764 5767 5766 5766 5765 5764 5763 5761 5759 5756 5754 5751 5747
5816 5813 5810 5806 5805 5803 5801 5799 5798 5797 5796 5795 5794 5792 5790 5788 5787 5786 5782 5781 5779 5776 5774 5773 5771 5768 5769 5769 5763 5756 5752 5755 5760 5765 5764 5762 5762 5760 5758 5757 5754 5752 5748
5818 5815 5813 5809 5807 5804 5803 5801 5800 5797 5795 5793 5791 5790 5790 5789 5788 5785 5783 5781 5779 5777 5774 5773 5772 5768 5765 5767 5768 5760 5751 5747 5752 5758 5761 5761 5759 5757 5757 5756 5754 5752 5749
5822 5820 5816 5811 5808 5806 5804 5801 5797 5792 5789 5790 5791 5790 5790 5789 5788 5786 5784 5781 5779 5777 5775 5773 5772 5771 5767 5764 5766 5766 5763 5759 5750 5747 5754 5758 5758 5756 5755 5756 5754 5751 5748
5828 5823 5818 5813 5808 5806 5804 5802 5798 5795 5793 5793 5792 5790 5789 5788 5787 5786 5784 5782 5779 5777 5775 5773 5772 5770 5769 5766 5764 5764 5762 5760 5758 5749 5744 5749 5753 5755 5755 5754 5752 5750 5748
5830 5826 5820 5813 5809 5807 5805 5802 5798 5795 5793 5791 5789 5787 5787 5787 5786 5785 5783 5781 5779 5777 5774 5773 5771 5769 5768 5766 5764 5763 5760 5756 5753 5751 5745 5745 5746 5750 5753 5753 5751 5749 5747